Flag for Germany Weather past 2 weeks in Kempen, North Rhine-Westphalia, Germany

Now
52 °F

Rain showers. Passing clouds.


Feels Like: 48 °F
Forecast: 45 / 51 °F
Wind: 10 mph from Southwest

Location: Monchengladbach Airport

Current Time: Mar 28, 2015 at 8:17:19 PM

Latest Report: Mar 28, 2015 at 7:50 PM


Visibility: 4 mi

Pressure: 29.86 "Hg

Humidity: 94%

Dew point: 50 °F

Location of KempenLocation

Historic Weather in Kempen — Graph

°F

Kempen temperature yesterday

Maximum temperature yesterday: 50 °F (at 1:50 PM)
Minimum temperature yesterday: 43 °F (at 7:50 AM)
Average temperature yesterday: 47 °F

Past Weeks' High & Low Weather Summary

 TemperatureHumidityPressure
High64 °F (Mar 17, 3:20 PM)100% (Mar 15, 9:20 AM)30.39 "Hg (Mar 15, 9:20 AM)
Low32 °F (Mar 17, 7:20 AM)34% (Mar 17, 3:20 PM)29.68 "Hg (Mar 25, 7:50 AM)
Average46 °F78%30.11 "Hg
* Reported Mar 13 7:20 PM — Mar 28 7:20 PM, Kempen, Weather by CustomWeather, © 2015

Note: Actual official high and low records may vary slightly from our data, if they occured in-between our weather recording intervals... More about our weather records

Advertising

Kempen weather history for previous 24 hours

 ConditionsComfort  
Time TempWeatherWind HumidityBarometerVisibility
7:20 PM
Sat, Mar 28
52 °FPartly cloudy.10 mph94%29.86 "HgN/A
6:50 PM52 °FPartly cloudy.10 mph94%29.89 "HgN/A
6:20 PM52 °FPassing clouds.8 mph94%29.89 "HgN/A
5:50 PM52 °FPassing clouds.8 mph94%29.89 "HgN/A
5:20 PM50 °FPassing clouds.9 mph100%29.89 "HgN/A
4:50 PM48 °FPassing clouds.8 mph100%29.92 "HgN/A
4:20 PM48 °FLight rain. Passing clouds.9 mph100%29.92 "Hg5 mi
3:50 PM48 °FLight rain. Fog.8 mph100%29.95 "Hg2 mi
3:20 PM48 °FLight rain. Partly cloudy.9 mph100%29.95 "Hg2 mi
2:50 PM48 °FRain. Passing clouds.12 mph100%29.98 "Hg3 mi
2:20 PM50 °FLight rain. Passing clouds.12 mph94%29.98 "Hg4 mi
1:50 PM50 °FLight rain. Passing clouds.8 mph94%29.98 "Hg5 mi
1:20 PM50 °FLight rain. Passing clouds.10 mph82%30.01 "Hg5 mi
12:50 PM52 °FLight rain. Passing clouds.12 mph72%30.01 "Hg5 mi
12:20 PM52 °FPassing clouds.12 mph67%30.04 "HgN/A
11:50 AM54 °FPassing clouds.16 mph58%30.04 "HgN/A
11:20 AM54 °FPartly cloudy.13 mph54%30.04 "HgN/A
10:50 AM52 °FPassing clouds.9 mph62%30.07 "HgN/A
10:20 AM52 °FPassing clouds.7 mph62%30.07 "HgN/A
9:50 AM48 °FScattered clouds.9 mph71%30.09 "HgN/A
9:20 AM46 °FScattered clouds.7 mph76%30.09 "HgN/A
8:50 AM43 °FScattered clouds.5 mph93%30.12 "HgN/A
8:20 AM39 °FScattered clouds.5 mph100%30.12 "HgN/A
7:50 AM36 °FPartly sunny.5 mph100%30.12 "HgN/A
8:20 PM
Fri, Mar 27
43 °FClear.3 mph71%30.18 "Hg10 mi
Weather by CustomWeather, © 2015

See weather overviewHow to use our weather pages